| time (UTC) | temp F | wind direction | speed MPH | gust MPH | rain 1hr in | rain 24hr in | rain mn in | humidity % | barometer mb |
| 20260505092600 | 60 | 346 | 8.0 | 17.0 | 0.00 | 0.03 | 0.00 | 60 | 1014.6 |
| 20260505092100 | 60 | 322 | 3.0 | 9.0 | 0.00 | 0.03 | 0.00 | 62 | 1014.5 |
| 20260505091600 | 59 | 65 | 4.0 | 10.0 | 0.00 | 0.03 | 0.00 | 62 | 1014.6 |
| 20260505091100 | 59 | 0 | 1.0 | 15.0 | 0.00 | 0.03 | 0.00 | 65 | 1014.5 |
| 20260505090559 | 58 | 9 | 1.0 | 15.0 | 0.00 | 0.03 | 0.00 | 65 | 1014.6 |
| 20260505090059 | 58 | 15 | 7.0 | 15.0 | 0.00 | 0.03 | 0.00 | 62 | 1014.7 |
| 20260505085559 | 58 | 306 | 6.0 | 12.0 | 0.00 | 0.03 | 0.00 | 65 | 1014.5 |
| 20260505085059 | 58 | 22 | 4.0 | 11.0 | 0.00 | 0.03 | 0.00 | 63 | 1014.6 |
| 20260505084605 | 58 | 325 | 2.0 | 11.0 | 0.00 | 0.03 | 0.00 | 64 | 1014.5 |
| 20260505084057 | 58 | 18 | 1.0 | 10.0 | 0.00 | 0.03 | 0.00 | 66 | 1014.6 |
| 20260505083557 | 57 | 52 | 4.0 | 10.0 | 0.00 | 0.03 | 0.00 | 68 | 1014.6 |
| 20260505083115 | 57 | 318 | 3.0 | 10.0 | 0.00 | 0.03 | 0.00 | 68 | 1014.6 |
| 20260505082605 | 56 | 340 | 3.0 | 10.0 | 0.00 | 0.03 | 0.00 | 68 | 1014.5 |
| 20260505082058 | 55 | 5 | 2.0 | 6.0 | 0.00 | 0.03 | 0.00 | 70 | 1014.5 |
| 20260505081608 | 54 | 341 | 2.0 | 5.0 | 0.00 | 0.03 | 0.00 | 71 | 1014.6 |
| 20260505081058 | 54 | 0 | 1.0 | 3.0 | 0.00 | 0.03 | 0.00 | 72 | 1014.6 |
| 20260505080557 | 53 | 88 | 0.0 | 4.0 | 0.00 | 0.03 | 0.00 | 75 | 1014.6 |
| 20260505080114 | 53 | 190 | 0.0 | 4.0 | 0.00 | 0.03 | 0.00 | 74 | 1014.6 |
| 20260505075557 | 53 | 16 | 1.0 | 10.0 | 0.00 | 0.03 | 0.00 | 74 | 1014.7 |
| 20260505075100 | 54 | 292 | 4.0 | 11.0 | 0.00 | 0.03 | 0.00 | 74 | 1014.6 |
| 20260505074558 | 54 | 302 | 3.0 | 11.0 | 0.00 | 0.03 | 0.00 | 73 | 1014.7 |
| 20260505074058 | 54 | 328 | 5.0 | 10.0 | 0.00 | 0.03 | 0.00 | 75 | 1014.6 |
| 20260505073559 | 54 | 26 | 4.0 | 10.0 | 0.00 | 0.03 | 0.00 | 75 | 1014.7 |
| 20260505073104 | 54 | 322 | 4.0 | 10.0 | 0.00 | 0.03 | 0.00 | 75 | 1014.7 |
| 20260505072557 | 53 | 352 | 3.0 | 8.0 | 0.00 | 0.03 | 0.00 | 78 | 1014.7 |
| 20260505072058 | 52 | 352 | 3.0 | 8.0 | 0.00 | 0.03 | 0.00 | 78 | 1014.6 |
| 20260505071606 | 52 | 323 | 2.0 | 6.0 | 0.00 | 0.03 | 0.00 | 80 | 1014.8 |
| 20260505071058 | 51 | 301 | 2.0 | 6.0 | 0.00 | 0.03 | 0.00 | 79 | 1014.7 |
| 20260505070558 | 51 | 19 | 3.0 | 6.0 | 0.00 | 0.03 | 0.00 | 80 | 1014.8 |
| 20260505070107 | 51 | 350 | 1.0 | 4.0 | 0.00 | 0.03 | 0.00 | 80 | 1014.9 |
| 20260505065558 | 51 | 316 | 2.0 | 4.0 | 0.00 | 0.03 | 0.00 | 79 | 1014.9 |
| 20260505065058 | 51 | 352 | 1.0 | 4.0 | 0.00 | 0.03 | 0.00 | 80 | 1014.9 |
| 20260505064702 | 51 | 286 | 0.0 | 4.0 | 0.00 | 0.03 | 0.00 | 81 | 1014.8 |
| 20260505064058 | 51 | 340 | 1.0 | 4.0 | 0.00 | 0.03 | 0.00 | 81 | 1014.6 |
| 20260505063558 | 51 | 26 | 1.0 | 8.0 | 0.00 | 0.03 | 0.00 | 81 | 1014.6 |
| 20260505063101 | 51 | 103 | 2.0 | 12.0 | 0.00 | 0.03 | 0.00 | 81 | 1014.5 |
| 20260505062558 | 51 | 61 | 0.0 | 12.0 | 0.00 | 0.03 | 0.00 | 81 | 1014.6 |
| 20260505062058 | 51 | 90 | 3.0 | 12.0 | 0.00 | 0.03 | 0.00 | 80 | 1014.5 |
| 20260505061600 | 51 | 277 | 1.0 | 8.0 | 0.00 | 0.03 | 0.00 | 84 | 1014.5 |
| 20260505061058 | 51 | 90 | 3.0 | 8.0 | 0.00 | 0.03 | 0.00 | 84 | 1014.3 |
| 20260505060606 | 51 | 127 | 0.0 | 3.0 | 0.00 | 0.03 | 0.00 | 85 | 1014.3 |
| 20260505060058 | 51 | 0 | 0.0 | 4.0 | 0.00 | 0.03 | 0.00 | 85 | 1014.4 |
| 20260505055558 | 51 | 0 | 1.0 | 6.0 | 0.00 | 0.03 | 0.00 | 85 | 1014.5 |
| 20260505055101 | 51 | 82 | 2.0 | 6.0 | 0.00 | 0.03 | 0.00 | 85 | 1014.5 |
| 20260505054558 | 50 | 98 | 2.0 | 7.0 | 0.00 | 0.03 | 0.00 | 85 | 1014.5 |
| 20260505054058 | 50 | 30 | 1.0 | 7.0 | 0.00 | 0.03 | 0.00 | 87 | 1014.4 |
| 20260505053558 | 50 | 71 | 0.0 | 7.0 | 0.00 | 0.03 | 0.00 | 87 | 1014.5 |
| 20260505053100 | 50 | 143 | 1.0 | 7.0 | 0.00 | 0.03 | 0.00 | 88 | 1014.3 |
| 20260505052559 | 50 | 330 | 1.0 | 5.0 | 0.00 | 0.03 | 0.00 | 88 | 1014.4 |
| 20260505052059 | 50 | 352 | 2.0 | 5.0 | 0.00 | 0.03 | 0.00 | 88 | 1014.4 |
| 20260505051558 | 50 | 0 | 0.0 | 3.0 | 0.00 | 0.03 | 0.00 | 88 | 1014.5 |
| 20260505051059 | 50 | 217 | 0.0 | 5.0 | 0.00 | 0.03 | 0.00 | 87 | 1014.6 |
| 20260505050559 | 50 | 166 | 0.0 | 7.0 | 0.00 | 0.03 | 0.00 | 87 | 1014.5 |
| 20260505050110 | 50 | 66 | 2.0 | 7.0 | 0.00 | 0.03 | 0.00 | 87 | 1014.5 |
| 20260505041607 | 49 | 328 | 1.0 | 4.0 | 0.00 | 0.03 | 0.00 | 89 | 1014.5 |
| 20260505041057 | 49 | 0 | 1.0 | 4.0 | 0.00 | 0.03 | 0.00 | 88 | 1014.5 |
| 20260505040557 | 49 | 360 | 1.0 | 4.0 | 0.00 | 0.03 | 0.00 | 88 | 1014.5 |
| 20260505040106 | 49 | 13 | 1.0 | 5.0 | 0.00 | 0.03 | 0.00 | 88 | 1014.4 |
| 20260505035601 | 49 | 352 | 2.0 | 5.0 | 0.00 | 0.03 | 0.00 | 88 | 1014.4 |
| 20260505035057 | 49 | 352 | 0.0 | 7.0 | 0.00 | 0.03 | 0.00 | 88 | 1014.3 |
| 20260505034613 | 49 | 352 | 2.0 | 7.0 | 0.00 | 0.03 | 0.00 | 88 | 1014.2 |
| 20260505034058 | 49 | 59 | 3.0 | 7.0 | 0.00 | 0.03 | 0.00 | 88 | 1014.3 |
| 20260505033557 | 49 | 28 | 1.0 | 8.0 | 0.00 | 0.03 | 0.00 | 88 | 1014.4 |
| 20260505033108 | 49 | 69 | 3.0 | 8.0 | 0.00 | 0.03 | 0.00 | 88 | 1014.4 |
| 20260505032557 | 49 | 48 | 3.0 | 7.0 | 0.00 | 0.03 | 0.00 | 89 | 1014.3 |
| 20260505032056 | 48 | 47 | 1.0 | 4.0 | 0.00 | 0.03 | 0.00 | 90 | 1014.2 |
| 20260505031607 | 48 | 352 | 1.0 | 5.0 | 0.00 | 0.03 | 0.00 | 91 | 1014.4 |
| 20260505031056 | 48 | 0 | 2.0 | 5.0 | 0.00 | 0.03 | 0.00 | 91 | 1014.3 |
| 20260505030600 | 48 | 18 | 1.0 | 2.0 | 0.00 | 0.03 | 0.00 | 90 | 1014.4 |
| 20260505030119 | 48 | 40 | 0.0 | 3.0 | 0.00 | 0.03 | 0.00 | 90 | 1014.3 |
| 20260505025558 | 48 | 40 | 1.0 | 3.0 | 0.00 | 0.03 | 0.00 | 90 | 1014.3 |
| 20260505025058 | 48 | 0 | 1.0 | 3.0 | 0.00 | 0.03 | 0.00 | 90 | 1014.4 |
| 20260505024612 | 48 | 53 | 1.0 | 3.0 | 0.00 | 0.03 | 0.00 | 90 | 1014.5 |
| 20260505024057 | 49 | 10 | 1.0 | 4.0 | 0.00 | 0.03 | 0.00 | 90 | 1014.5 |
| 20260505023558 | 49 | 51 | 1.0 | 4.0 | 0.00 | 0.03 | 0.00 | 91 | 1014.5 |
| 20260505023057 | 49 | 26 | 2.0 | 3.0 | 0.00 | 0.03 | 0.00 | 90 | 1014.6 |
| 20260505022601 | 49 | 28 | 1.0 | 3.0 | 0.00 | 0.03 | 0.00 | 91 | 1014.5 |
| 20260505022058 | 49 | 0 | 1.0 | 4.0 | 0.00 | 0.03 | 0.00 | 91 | 1014.7 |
| 20260505021557 | 49 | 11 | 2.0 | 4.0 | 0.00 | 0.03 | 0.00 | 91 | 1014.6 |
| 20260505021057 | 49 | 37 | 2.0 | 4.0 | 0.00 | 0.03 | 0.00 | 90 | 1014.7 |
| 20260505020558 | 49 | 54 | 1.0 | 3.0 | 0.00 | 0.03 | 0.00 | 90 | 1014.8 |
| 20260505020107 | 49 | 60 | 2.0 | 3.0 | 0.00 | 0.03 | 0.00 | 90 | 1014.8 |
| 20260505015557 | 49 | 52 | 2.0 | 3.0 | 0.00 | 0.03 | 0.00 | 90 | 1014.7 |
| 20260505015100 | 49 | 53 | 2.0 | 4.0 | 0.00 | 0.03 | 0.00 | 90 | 1014.7 |
| 20260505014556 | 49 | 59 | 1.0 | 4.0 | 0.00 | 0.03 | 0.00 | 90 | 1014.7 |
| 20260505014056 | 50 | 63 | 2.0 | 4.0 | 0.00 | 0.03 | 0.00 | 90 | 1014.8 |
| 20260505013557 | 50 | 55 | 2.0 | 4.0 | 0.00 | 0.03 | 0.00 | 90 | 1014.9 |
| 20260505013058 | 50 | 46 | 1.0 | 4.0 | 0.00 | 0.03 | 0.00 | 89 | 1014.7 |
| 20260505012600 | 50 | 42 | 2.0 | 3.0 | 0.00 | 0.03 | 0.00 | 89 | 1014.7 |
| 20260505012057 | 50 | 58 | 1.0 | 3.0 | 0.00 | 0.03 | 0.00 | 90 | 1014.7 |
| 20260505011601 | 50 | 43 | 1.0 | 4.0 | 0.00 | 0.03 | 0.00 | 90 | 1014.8 |
| 20260505011058 | 50 | 42 | 2.0 | 4.0 | 0.00 | 0.03 | 0.00 | 90 | 1014.8 |
| 20260505010558 | 50 | 40 | 2.0 | 4.0 | 0.00 | 0.03 | 0.00 | 90 | 1014.8 |
| 20260505010110 | 50 | 42 | 2.0 | 3.0 | 0.00 | 0.03 | 0.00 | 90 | 1014.9 |
| 20260505005559 | 50 | 49 | 1.0 | 3.0 | 0.00 | 0.03 | 0.00 | 89 | 1015.0 |
| 20260505005059 | 50 | 49 | 1.0 | 2.0 | 0.00 | 0.03 | 0.00 | 89 | 1014.9 |
| 20260505004631 | 50 | 49 | 1.0 | 3.0 | 0.00 | 0.03 | 0.00 | 89 | 1014.9 |
| 20260505004057 | 50 | 49 | 1.0 | 3.0 | 0.00 | 0.03 | 0.00 | 89 | 1014.9 |
| 20260505003558 | 51 | 44 | 1.0 | 3.0 | 0.00 | 0.03 | 0.00 | 88 | 1015.0 |
| 20260505003101 | 51 | 44 | 1.0 | 2.0 | 0.00 | 0.03 | 0.00 | 88 | 1015.1 |
| 20260505002600 | 51 | 9 | 0.0 | 2.0 | 0.00 | 0.03 | 0.00 | 87 | 1015.0 |
| 20260505002059 | 52 | 9 | 0.0 | 1.0 | 0.00 | 0.03 | 0.00 | 87 | 1015.0 |
| 20260505001558 | 52 | 0 | 0.0 | 2.0 | 0.00 | 0.03 | 0.00 | 86 | 1015.0 |
| 20260505001058 | 52 | 9 | 0.0 | 2.0 | 0.00 | 0.03 | 0.00 | 87 | 1015.1 |
| 20260505000558 | 53 | 0 | 0.0 | 3.0 | 0.00 | 0.03 | 0.00 | 86 | 1014.9 |
| 20260505000113 | 53 | 42 | 0.0 | 5.0 | 0.00 | 0.03 | 0.00 | 87 | 1015.1 |
| 20260504235557 | 53 | 41 | 1.0 | 5.0 | 0.00 | 0.03 | 0.00 | 87 | 1015.0 |
| 20260504235058 | 53 | 34 | 1.0 | 3.0 | 0.00 | 0.03 | 0.00 | 88 | 1014.9 |
| 20260504234559 | 53 | 352 | 2.0 | 3.0 | 0.00 | 0.03 | 0.00 | 88 | 1015.0 |
| 20260504234058 | 53 | 30 | 1.0 | 3.0 | 0.00 | 0.03 | 0.00 | 87 | 1015.0 |
| 20260504233559 | 53 | 55 | 1.0 | 3.0 | 0.00 | 0.03 | 0.00 | 89 | 1015.2 |
| 20260504233108 | 53 | 0 | 1.0 | 3.0 | 0.00 | 0.03 | 0.00 | 89 | 1014.9 |
| 20260504232558 | 53 | 0 | 0.0 | 3.0 | 0.00 | 0.03 | 0.00 | 89 | 1015.1 |
| 20260504232057 | 52 | 0 | 1.0 | 3.0 | 0.00 | 0.03 | 0.00 | 90 | 1015.1 |
| 20260504231626 | 52 | 0 | 0.0 | 1.0 | 0.00 | 0.03 | 0.00 | 90 | 1015.1 |
| 20260504231057 | 52 | 0 | 0.0 | 1.0 | 0.00 | 0.03 | 0.00 | 88 | 1015.1 |
| 20260504230600 | 52 | 0 | 0.0 | 1.0 | 0.00 | 0.03 | 0.00 | 86 | 1015.2 |
| 20260504230100 | 53 | 49 | 0.0 | 1.0 | 0.00 | 0.03 | 0.00 | 85 | 1015.1 |
| 20260504225559 | 53 | 0 | 0.0 | 2.0 | 0.00 | 0.03 | 0.03 | 87 | 1015.1 |
| 20260504225057 | 53 | 0 | 0.0 | 2.0 | 0.00 | 0.03 | 0.03 | 88 | 1015.1 |
| 20260504224620 | 53 | 49 | 1.0 | 2.0 | 0.00 | 0.03 | 0.03 | 88 | 1015.1 |
| 20260504224103 | 53 | 0 | 0.0 | 2.0 | 0.00 | 0.03 | 0.03 | 88 | 1015.2 |
| 20260504223557 | 53 | 0 | 0.0 | 2.0 | 0.00 | 0.03 | 0.03 | 88 | 1015.1 |
| 20260504223104 | 53 | 0 | 0.0 | 2.0 | 0.00 | 0.03 | 0.03 | 88 | 1015.2 |
| 20260504222559 | 53 | 49 | 1.0 | 2.0 | 0.00 | 0.03 | 0.03 | 87 | 1015.1 |
| 20260504222101 | 53 | 49 | 0.0 | 2.0 | 0.00 | 0.03 | 0.03 | 87 | 1015.1 |
| 20260504221646 | 53 | 49 | 1.0 | 2.0 | 0.00 | 0.03 | 0.03 | 87 | 1015.2 |
| 20260504221058 | 53 | 49 | 1.0 | 2.0 | 0.00 | 0.03 | 0.03 | 87 | 1015.2 |
| 20260504220558 | 54 | 0 | 0.0 | 2.0 | 0.00 | 0.03 | 0.03 | 86 | 1015.1 |
| 20260504215558 | 54 | 49 | 0.0 | 2.0 | 0.00 | 0.03 | 0.03 | 85 | 1015.1 |
| 20260504215059 | 54 | 0 | 1.0 | 3.0 | 0.00 | 0.03 | 0.03 | 85 | 1015.2 |
| 20260504214603 | 55 | 49 | 1.0 | 3.0 | 0.00 | 0.03 | 0.03 | 85 | 1015.1 |
| 20260504214100 | 55 | 60 | 1.0 | 3.0 | 0.00 | 0.03 | 0.03 | 84 | 1015.1 |
| 20260504213557 | 55 | 0 | 0.0 | 0.0 | 0.00 | 0.03 | 0.03 | 84 | 1015.1 |
| 20260504213103 | 56 | 0 | 0.0 | 0.0 | 0.00 | 0.03 | 0.03 | 84 | 1015.1 |
| 20260504212601 | 56 | 0 | 0.0 | 0.0 | 0.00 | 0.03 | 0.03 | 84 | 1015.3 |
| 20260504212057 | 56 | 0 | 0.0 | 0.0 | 0.00 | 0.03 | 0.03 | 83 | 1015.2 |
| 20260504211559 | 56 | 0 | 0.0 | 0.0 | 0.00 | 0.03 | 0.03 | 83 | 1015.2 |
| 20260504211058 | 56 | 0 | 0.0 | 0.0 | 0.00 | 0.03 | 0.03 | 83 | 1015.2 |
| 20260504210558 | 56 | 0 | 0.0 | 0.0 | 0.00 | 0.03 | 0.03 | 83 | 1015.2 |
| 20260504210100 | 56 | 0 | 0.0 | 0.0 | 0.00 | 0.03 | 0.03 | 83 | 1015.3 |
| 20260504205604 | 56 | 0 | 0.0 | 0.0 | 0.00 | 0.03 | 0.03 | 82 | 1015.3 |
| 20260504205058 | 57 | 0 | 0.0 | 0.0 | 0.00 | 0.03 | 0.03 | 81 | 1015.2 |
| 20260504204600 | 57 | 0 | 0.0 | 0.0 | 0.00 | 0.03 | 0.03 | 81 | 1015.2 |
| 20260504204101 | 57 | 0 | 0.0 | 4.0 | 0.00 | 0.03 | 0.03 | 80 | 1015.2 |
| 20260504203601 | 57 | 0 | 0.0 | 4.0 | 0.00 | 0.03 | 0.03 | 80 | 1015.2 |
| 20260504203100 | 57 | 101 | 1.0 | 2.0 | 0.00 | 0.03 | 0.03 | 80 | 1015.1 |
| 20260504202558 | 57 | 0 | 0.0 | 2.0 | 0.00 | 0.03 | 0.03 | 80 | 1015.1 |
| 20260504202058 | 57 | 92 | 0.0 | 3.0 | 0.00 | 0.03 | 0.03 | 80 | 1015.1 |
| 20260504201607 | 57 | 0 | 0.0 | 3.0 | 0.00 | 0.03 | 0.03 | 79 | 1015.0 |
| 20260504201057 | 58 | 0 | 0.0 | 3.0 | 0.00 | 0.03 | 0.03 | 79 | 1014.9 |
| 20260504200557 | 58 | 69 | 1.0 | 3.0 | 0.00 | 0.03 | 0.03 | 79 | 1015.0 |
| 20260504195558 | 58 | 76 | 1.0 | 7.0 | 0.00 | 0.03 | 0.03 | 78 | 1014.8 |
| 20260504195057 | 58 | 74 | 1.0 | 7.0 | 0.00 | 0.03 | 0.03 | 78 | 1014.7 |
| 20260504194604 | 58 | 93 | 2.0 | 7.0 | 0.00 | 0.03 | 0.03 | 77 | 1014.7 |
| 20260504194059 | 58 | 92 | 2.0 | 4.0 | 0.00 | 0.03 | 0.03 | 77 | 1014.6 |
| 20260504193601 | 59 | 82 | 1.0 | 6.0 | 0.00 | 0.03 | 0.03 | 77 | 1014.6 |
| 20260504193100 | 59 | 0 | 0.0 | 6.0 | 0.00 | 0.03 | 0.03 | 76 | 1014.6 |
| 20260504192558 | 59 | 94 | 2.0 | 6.0 | 0.00 | 0.03 | 0.03 | 75 | 1014.6 |
| 20260504192059 | 59 | 84 | 1.0 | 6.0 | 0.00 | 0.03 | 0.03 | 75 | 1014.5 |
| 20260504191622 | 59 | 82 | 2.0 | 6.0 | 0.00 | 0.03 | 0.03 | 75 | 1014.5 |
| 20260504191058 | 59 | 0 | 0.0 | 4.0 | 0.00 | 0.03 | 0.03 | 76 | 1014.5 |
| 20260504190558 | 60 | 0 | 1.0 | 6.0 | 0.00 | 0.03 | 0.03 | 75 | 1014.5 |
| 20260504190110 | 60 | 80 | 1.0 | 6.0 | 0.00 | 0.03 | 0.03 | 75 | 1014.3 |
| 20260504185557 | 60 | 86 | 1.0 | 4.0 | 0.00 | 0.03 | 0.03 | 75 | 1014.4 |
| 20260504185057 | 60 | 0 | 1.0 | 5.0 | 0.00 | 0.03 | 0.03 | 74 | 1014.4 |
| 20260504184609 | 60 | 107 | 1.0 | 7.0 | 0.00 | 0.03 | 0.03 | 75 | 1014.4 |
| 20260504184058 | 60 | 51 | 1.0 | 7.0 | 0.00 | 0.03 | 0.03 | 74 | 1014.2 |
| 20260504183558 | 61 | 104 | 2.0 | 7.0 | 0.00 | 0.03 | 0.03 | 75 | 1014.2 |
| 20260504183057 | 61 | 127 | 2.0 | 7.0 | 0.00 | 0.03 | 0.03 | 73 | 1014.2 |
| 20260504182602 | 61 | 72 | 2.0 | 7.0 | 0.00 | 0.03 | 0.03 | 73 | 1014.2 |
| 20260504182058 | 61 | 104 | 3.0 | 6.0 | 0.00 | 0.03 | 0.03 | 73 | 1014.2 |
| 20260504181606 | 61 | 0 | 1.0 | 6.0 | 0.00 | 0.03 | 0.03 | 73 | 1014.2 |
| 20260504181058 | 61 | 108 | 2.0 | 8.0 | 0.00 | 0.03 | 0.03 | 72 | 1014.1 |
| 20260504180558 | 61 | 55 | 3.0 | 8.0 | 0.00 | 0.03 | 0.03 | 72 | 1014.0 |
| 20260504180100 | 61 | 26 | 3.0 | 8.0 | 0.00 | 0.03 | 0.03 | 72 | 1013.9 |
| 20260504175557 | 61 | 49 | 4.0 | 11.0 | 0.00 | 0.05 | 0.03 | 71 | 1014.0 |
| 20260504175058 | 61 | 24 | 5.0 | 11.0 | 0.00 | 0.05 | 0.03 | 70 | 1013.9 |
| 20260504174601 | 62 | 63 | 5.0 | 9.0 | 0.00 | 0.05 | 0.03 | 70 | 1014.0 |
| 20260504174058 | 62 | 36 | 6.0 | 12.0 | 0.00 | 0.05 | 0.03 | 71 | 1014.0 |
| 20260504173600 | 62 | 46 | 7.0 | 12.0 | 0.00 | 0.05 | 0.03 | 70 | 1014.0 |
| 20260504173104 | 62 | 69 | 4.0 | 10.0 | 0.00 | 0.05 | 0.03 | 72 | 1013.9 |
| 20260504172602 | 61 | 76 | 3.0 | 10.0 | 0.00 | 0.05 | 0.03 | 72 | 1013.9 |
| 20260504172103 | 61 | 64 | 5.0 | 10.0 | 0.00 | 0.05 | 0.03 | 72 | 1013.9 |
| 20260504171601 | 61 | 90 | 3.0 | 11.0 | 0.00 | 0.05 | 0.03 | 71 | 1014.0 |
| 20260504171100 | 62 | 72 | 5.0 | 12.0 | 0.00 | 0.05 | 0.03 | 70 | 1013.8 |
| 20260504170600 | 62 | 69 | 6.0 | 12.0 | 0.00 | 0.05 | 0.03 | 70 | 1013.7 |
| 20260504151059 | 64 | 13 | 3.0 | 14.0 | 0.00 | 0.07 | 0.03 | 74 | 1014.2 |
| 20260504150559 | 64 | 51 | 3.0 | 13.0 | 0.00 | 0.07 | 0.03 | 71 | 1014.3 |
| 20260504141058 | 64 | 30 | 5.0 | 14.0 | 0.00 | 0.07 | 0.03 | 72 | 1014.4 |
| 20260504140558 | 65 | 333 | 6.0 | 15.0 | 0.00 | 0.07 | 0.03 | 73 | 1014.4 |
| 20260504140111 | 64 | 350 | 6.0 | 15.0 | 0.00 | 0.07 | 0.03 | 72 | 1014.5 |
| 20260504130559 | 63 | 315 | 4.0 | 11.0 | 0.00 | 0.07 | 0.03 | 77 | 1014.4 |
| 20260504110604 | 59 | 36 | 4.0 | 8.0 | 0.00 | 0.07 | 0.03 | 85 | 1014.4 |
| 20260504110109 | 59 | 16 | 3.0 | 8.0 | 0.00 | 0.07 | 0.03 | 86 | 1014.6 |
| 20260504100557 | 57 | 42 | 2.0 | 5.0 | 0.03 | 0.07 | 0.03 | 89 | 1014.5 |
| 20260504100104 | 57 | 5 | 2.0 | 5.0 | 0.03 | 0.07 | 0.03 | 89 | 1014.4 |